Location: Mauries
(43.6188°N, 0.3322°W)
Time: 04:44:26
(UTC+00:00)

Sich 1 - Pass Details

Date: 14 January 2026
Orbit: 571 x 598 km, 82.5° (Epoch: 14 February)

Event Time Altitude Azimuth Distance (km) Brightness Sun altitude
Rises 06:01:06 0° 209° (SSW) 2,805 6.3 -16.1°
Reaches altitude 10° 06:03:28 10° 218° (SW) 1,905 5.3 -15.7°
Maximum altitude 06:07:18 34° 284° (WNW) 974 3.5 -15.0°
Drops below altitude 10° 06:11:08 10° 350° (N) 1,904 5.3 -14.4°
Sets 06:13:30 0° 0° (N) 2,803 6.3 -14.0°
